period_start,C,m1,H,J0,J1,J2,J3,J4,J5,JA,JB,JC,JD,JJ,JK,JN,#
2018-04-06 00:01:17,0.13,0.65,0.00,26.13,28.38,31.26,13.95,47.93,1031.28,2022.00,3188.99,2892.88,3326.47,600.20,598.50,4.79,0000 0000 0000 0000 000000
2018-04-06 00:06:19,0.12,0.65,0.00,26.18,28.40,31.28,13.90,47.88,1031.28,2021.99,3186.51,2891.12,3324.51,600.06,598.28,4.84,0000 0000 0000 0000 000000
2018-04-06 00:11:20,0.12,0.66,0.00,26.20,28.42,31.31,13.93,47.96,1031.27,2021.99,3184.03,2889.34,3322.45,600.17,598.28,4.89,0000 0000 0000 0000 000000
2018-04-06 00:16:21,0.13,0.66,0.00,26.25,28.45,31.31,13.95,47.88,1031.27,2021.98,3181.46,2887.52,3320.35,599.90,597.97,4.94,0000 0000 0000 0000 000000
2018-04-06 00:21:23,0.13,0.67,0.00,26.30,28.48,31.38,13.86,47.91,1031.27,2021.92,3178.92,2885.65,3318.15,599.87,597.83,4.99,0000 0000 0000 0000 000000
2018-04-06 00:26:24,0.08,0.68,0.00,26.33,28.51,31.40,13.98,47.90,1031.26,2021.53,3176.38,2883.73,3315.95,600.25,598.18,5.04,0000 0000 0000 0000 000000
2018-04-06 00:31:25,0.10,0.68,0.00,26.38,28.53,31.41,13.92,47.81,1031.26,2021.12,3173.75,2881.86,3313.79,600.00,597.79,5.09,0000 0000 0000 0000 000000
2018-04-06 00:36:26,0.12,0.69,0.00,26.41,28.56,31.43,13.89,47.82,1031.24,2021.03,3171.00,2879.92,3311.55,600.01,597.67,5.14,0000 0000 0000 0000 000000
2018-04-06 00:41:27,0.14,0.69,0.00,26.45,28.59,31.47,13.82,47.83,1031.09,2021.01,3168.11,2878.02,3309.19,599.65,597.21,5.19,0000 0000 0000 0000 000000
2018-04-06 00:46:29,0.14,0.70,0.00,26.50,28.62,31.49,13.94,47.92,1030.82,2021.00,3165.22,2876.03,3306.95,600.02,597.26,5.24,0000 0000 0000 0000 000000
2018-04-06 00:51:30,0.14,0.71,0.00,26.53,28.65,31.52,13.96,47.92,1030.81,2021.00,3162.21,2873.92,3304.61,599.95,597.22,5.29,0000 0000 0000 0000 000000
2018-04-06 00:56:31,0.14,0.72,0.00,26.58,28.67,31.53,13.85,47.83,1030.80,2021.00,3159.37,2871.83,3302.18,600.30,597.43,5.34,0000 0000 0000 0000 000000
2018-04-06 01:01:32,0.14,0.72,0.00,26.62,28.70,31.59,14.00,47.89,1030.79,2020.97,3156.50,2869.81,3299.82,599.90,596.95,5.39,0000 0000 0000 0000 000000
2018-04-06 01:06:33,0.15,0.73,0.00,26.66,28.73,31.63,13.90,47.81,1030.79,2020.91,3153.43,2867.63,3297.35,600.16,597.12,5.44,0000 0000 0000 0000 000000
2018-04-06 01:11:34,0.11,0.74,0.00,26.71,28.76,31.62,13.93,47.92,1030.80,2020.60,3150.33,2865.45,3294.87,600.22,597.22,5.49,0000 0000 0000 0000 000000
2018-04-06 01:16:36,0.11,0.74,0.00,26.76,28.80,31.67,13.95,47.91,1030.78,2020.23,3147.29,2863.29,3292.31,600.21,596.90,5.54,0000 0000 0000 0000 000000
2018-04-06 01:21:37,0.14,0.75,0.00,26.81,28.84,31.68,13.81,47.87,1030.79,2020.03,3144.29,2861.16,3289.87,599.77,596.44,5.59,0000 0000 0000 0000 000000
2018-04-06 01:26:38,0.15,0.76,0.00,26.86,28.88,31.71,13.86,47.81,1030.78,2020.00,3141.23,2858.95,3287.36,599.96,596.59,5.64,0000 0000 0000 0000 000000
2018-04-06 01:31:39,0.14,0.76,0.00,26.89,28.91,31.76,13.91,47.88,1030.78,2020.00,3138.31,2856.82,3284.93,600.13,596.60,5.69,0000 0000 0000 0000 000000
2018-04-06 01:36:40,0.14,0.77,0.00,26.96,28.95,31.80,13.87,47.84,1030.78,2019.99,3135.45,2854.71,3282.49,599.93,596.36,5.74,0000 0000 0000 0000 000000
2018-04-06 01:41:42,0.14,0.78,0.00,27.00,28.99,31.85,13.85,47.78,1030.78,2019.95,3132.68,2852.61,3280.09,599.93,596.21,5.79,0000 0000 0000 0000 000000
2018-04-06 01:46:43,0.08,0.79,0.00,27.06,29.03,31.86,13.88,47.82,1030.78,2019.37,3129.73,2850.43,3277.57,600.29,596.46,5.84,0000 0000 0000 0000 000000
2018-04-06 01:51:44,0.12,0.79,0.00,27.11,29.07,31.89,13.85,47.74,1030.78,2019.06,3126.94,2848.40,3275.24,600.18,596.12,5.89,0000 0000 0000 0000 000000
2018-04-06 01:56:45,0.14,0.80,0.00,27.16,29.11,31.94,13.88,47.77,1030.78,2019.00,3124.21,2846.32,3272.89,599.94,595.97,5.94,0000 0000 0000 0000 000000
2018-04-06 02:01:46,0.14,0.80,0.00,27.20,29.15,31.95,13.85,47.78,1030.78,2019.00,3121.52,2844.34,3270.59,599.78,595.67,5.99,0000 0000 0000 0000 000000
2018-04-06 02:06:47,0.14,0.81,0.00,27.26,29.19,32.01,13.87,47.73,1030.78,2018.99,3118.71,2842.31,3268.26,600.13,595.90,6.04,0000 0000 0000 0000 000000
2018-04-06 02:11:49,0.15,0.82,0.00,27.31,29.23,32.05,13.83,47.72,1030.76,2018.95,3115.68,2840.16,3265.81,600.00,595.74,6.09,0000 0000 0000 0000 000000
2018-04-06 02:16:50,0.13,0.83,0.00,27.38,29.27,32.08,13.81,47.74,1030.73,2018.65,3112.42,2837.88,3263.27,599.86,595.46,6.14,0000 0000 0000 0000 000000
2018-04-06 02:21:51,0.12,0.83,0.00,27.41,29.31,32.13,13.83,47.74,1030.64,2018.16,3109.17,2835.53,3260.74,600.13,595.51,6.19,0000 0000 0000 0000 000000
2018-04-06 02:26:52,0.14,0.84,0.00,27.49,29.36,32.16,13.84,47.71,1030.50,2018.00,3106.08,2833.29,3258.13,600.10,595.28,6.24,0000 0000 0000 0000 000000
2018-04-06 02:31:54,0.16,0.85,0.00,27.56,29.40,32.21,13.83,47.78,1030.60,2018.00,3103.03,2831.10,3255.62,600.13,595.20,6.29,0000 0000 0000 0000 000000
2018-04-06 02:36:55,0.16,0.86,0.00,27.60,29.44,32.26,13.77,47.72,1030.62,2018.00,3099.85,2828.90,3253.07,600.05,595.09,6.34,0000 0000 0000 0000 000000
2018-04-06 02:41:56,0.16,0.87,0.00,27.64,29.49,32.29,13.90,47.70,1030.72,2017.96,3096.67,2826.56,3250.44,600.34,595.38,6.39,0000 0000 0000 0000 000000
2018-04-06 02:46:57,0.11,0.87,0.00,27.71,29.53,32.34,13.86,47.64,1030.66,2017.61,3093.62,2824.30,3247.86,600.12,594.86,6.44,0000 0000 0000 0000 000000
2018-04-06 02:51:58,0.13,0.88,0.00,27.77,29.58,32.38,13.87,47.59,1030.43,2017.09,3090.36,2821.94,3245.12,600.32,594.84,6.49,0000 0000 0000 0000 000000
2018-04-06 02:56:59,0.26,0.89,0.00,27.85,29.63,32.43,13.83,47.63,1030.34,2017.00,3086.18,2818.88,3241.58,600.08,594.51,6.54,0000 0000 0000 0000 000000
2018-04-06 03:02:01,0.33,0.91,0.00,27.91,29.68,32.47,13.81,47.76,1030.32,2017.00,3079.89,2814.08,3236.12,600.11,594.38,6.59,0000 0000 0000 0000 000000
2018-04-06 03:07:02,0.25,0.92,0.00,27.98,29.73,32.53,13.73,47.92,1030.32,2016.89,3074.75,2810.19,3231.72,599.60,593.80,6.64,0000 0000 0000 0000 000000
2018-04-06 03:12:03,0.21,0.93,0.00,28.03,29.78,32.56,13.79,48.01,1030.31,2016.26,3069.73,2806.22,3227.21,600.29,594.16,6.69,0000 0000 0000 0000 000000
2018-04-06 03:17:04,0.27,0.94,0.00,28.09,29.83,32.61,13.86,47.92,1030.31,2016.01,3064.45,2802.20,3222.59,600.22,594.04,6.74,0000 0000 0000 0000 000000
2018-04-06 03:22:05,0.25,0.96,0.00,28.15,29.88,32.66,13.75,47.92,1030.30,2016.00,3059.64,2798.49,3218.36,599.75,593.62,6.79,0000 0000 0000 0000 000000
2018-04-06 03:27:06,0.23,0.97,0.00,28.21,29.94,32.72,13.79,47.88,1030.30,2015.99,3055.53,2795.30,3214.80,599.84,593.47,6.85,0000 0000 0000 0000 000000
2018-04-06 03:32:08,0.20,0.98,0.00,28.29,29.99,32.78,13.80,47.88,1030.30,2015.63,3051.12,2791.92,3210.92,600.02,593.42,6.90,0000 0000 0000 0000 000000
2018-04-06 03:37:09,0.25,0.99,0.00,28.35,30.05,32.84,13.83,47.71,1030.30,2015.06,3046.07,2787.95,3206.45,599.93,593.43,6.95,0000 0000 0000 0000 000000
2018-04-06 03:42:10,0.32,1.01,0.00,28.40,30.10,32.89,13.81,47.69,1030.29,2015.00,3040.37,2783.53,3201.45,600.01,593.21,7.00,0000 0000 0000 0000 000000
2018-04-06 03:47:11,0.27,1.02,0.00,28.47,30.15,32.94,13.79,47.77,1030.29,2014.80,3034.79,2779.20,3196.70,600.34,593.44,7.05,0000 0000 0000 0000 000000
2018-04-06 03:52:12,0.21,1.03,0.00,28.55,30.21,32.99,13.74,47.72,1030.29,2014.37,3029.83,2775.51,3192.59,599.78,592.69,7.10,0000 0000 0000 0000 000000
2018-04-06 03:57:14,0.21,1.04,0.00,28.60,30.27,33.04,13.74,47.76,1030.28,2014.04,3025.70,2772.28,3188.96,599.61,592.75,7.15,0000 0000 0000 0000 000000
2018-04-06 04:02:15,0.25,1.06,0.00,28.68,30.32,33.11,13.71,47.71,1030.26,2014.00,3021.06,2768.74,3184.89,599.98,592.75,7.20,0000 0000 0000 0000 000000
2018-04-06 04:07:16,0.23,1.07,0.00,28.75,30.38,33.13,13.70,47.76,1030.26,2013.92,3016.74,2765.35,3181.03,599.96,592.42,7.25,0000 0000 0000 0000 000000
2018-04-06 04:12:17,0.19,1.08,0.00,28.79,30.44,33.22,13.79,47.71,1030.27,2013.39,3012.21,2761.79,3176.99,600.05,592.50,7.30,0000 0000 0000 0000 000000
2018-04-06 04:17:18,0.24,1.09,0.00,28.85,30.49,33.26,13.78,47.68,1030.27,2013.02,3007.69,2758.19,3172.91,600.07,592.43,7.35,0000 0000 0000 0000 000000
2018-04-06 04:22:19,0.25,1.10,0.00,28.91,30.55,33.33,13.78,47.67,1030.27,2013.00,3003.40,2754.70,3169.00,599.83,592.16,7.40,0000 0000 0000 0000 000000
2018-04-06 04:27:21,0.21,1.11,0.00,28.94,30.61,33.37,13.70,47.63,1030.27,2012.91,2999.32,2751.52,3165.22,599.95,592.12,7.45,0000 0000 0000 0000 000000
2018-04-06 04:32:22,0.13,1.12,0.00,29.01,30.67,33.43,13.69,47.60,1030.27,2012.21,2995.53,2748.73,3161.84,599.87,591.88,7.50,0000 0000 0000 0000 000000
2018-04-06 04:37:23,0.19,1.13,0.00,29.05,30.72,33.48,13.70,47.68,1030.26,2012.01,2992.02,2746.04,3158.82,600.19,592.14,7.55,0000 0000 0000 0000 000000
2018-04-06 04:42:24,0.21,1.14,0.00,29.12,30.77,33.54,13.72,47.63,1030.23,2012.00,2988.27,2743.21,3155.63,600.16,592.00,7.60,0000 0000 0000 0000 000000
2018-04-06 04:47:25,0.21,1.15,0.00,29.18,30.83,33.59,13.61,47.51,1029.99,2011.94,2984.55,2740.38,3152.43,599.28,590.85,7.65,0000 0000 0000 0000 000000
2018-04-06 04:52:27,0.13,1.16,0.00,29.23,30.88,33.63,13.68,47.56,1029.83,2011.33,2980.80,2737.46,3149.18,599.99,591.29,7.70,0000 0000 0000 0000 000000
2018-04-06 04:57:28,0.18,1.17,0.00,29.27,30.94,33.70,13.75,47.52,1029.82,2011.02,2977.24,2734.74,3146.01,600.06,591.26,7.75,0000 0000 0000 0000 000000
2018-04-06 05:02:30,0.21,1.18,0.00,29.34,30.99,33.75,13.66,47.42,1029.85,2011.00,2973.63,2731.97,3142.84,599.72,590.84,7.80,0000 0000 0000 0000 000000
2018-04-06 05:07:31,0.19,1.19,0.00,29.37,31.04,33.80,13.74,47.47,1029.83,2010.93,2970.15,2729.23,3139.66,600.26,591.32,7.85,0000 0000 0000 0000 000000
2018-04-06 05:12:32,0.12,1.20,0.00,29.44,31.09,33.85,13.70,47.38,1029.83,2010.34,2966.79,2726.62,3136.72,599.96,590.89,7.90,0000 0000 0000 0000 000000
2018-04-06 05:17:33,0.23,1.21,0.00,29.49,31.14,33.90,13.67,47.35,1029.81,2010.02,2962.74,2723.48,3133.28,600.11,590.98,7.95,0000 0000 0000 0000 000000
2018-04-06 05:22:34,0.19,1.22,0.00,29.54,31.19,33.98,13.67,47.42,1029.81,2009.99,2959.23,2720.73,3130.13,600.07,590.82,8.00,0000 0000 0000 0000 000000
2018-04-06 05:27:35,0.21,1.23,0.00,29.58,31.23,34.02,13.73,47.26,1029.81,2009.93,2955.57,2717.88,3126.92,599.93,590.69,8.05,0000 0000 0000 0000 000000
2018-04-06 05:32:36,0.14,1.24,0.00,29.62,31.28,34.06,13.62,47.31,1029.82,2009.46,2951.88,2714.98,3123.61,599.75,590.34,8.10,0000 0000 0000 0000 000000
2018-04-06 05:37:38,0.14,1.24,0.00,29.67,31.33,34.10,13.73,47.27,1029.81,2009.04,2949.06,2712.75,3121.03,600.09,590.61,8.15,0000 0000 0000 0000 000000
2018-04-06 05:42:39,0.15,1.25,0.00,29.71,31.37,34.16,13.72,47.29,1029.80,2009.00,2946.41,2710.77,3118.74,599.82,590.22,8.20,0000 0000 0000 0000 000000
2018-04-06 05:47:40,0.15,1.26,0.00,29.75,31.42,34.22,13.64,47.32,1029.80,2008.99,2943.70,2708.67,3116.31,599.75,590.01,8.25,0000 0000 0000 0000 000000
2018-04-06 05:52:42,0.12,1.26,0.00,29.80,31.47,34.27,13.65,47.20,1029.80,2008.76,2941.13,2706.65,3114.01,599.67,589.85,8.30,0000 0000 0000 0000 000000
2018-04-06 05:57:43,0.09,1.27,0.00,29.83,31.51,34.31,13.75,47.24,1029.80,2008.16,2938.46,2704.74,3111.76,600.04,590.11,8.35,0000 0000 0000 0000 000000
2018-04-06 06:02:44,0.16,1.28,0.00,29.87,31.56,34.37,13.70,47.20,1029.80,2008.01,2935.67,2702.58,3109.32,599.89,590.03,8.40,0000 0000 0000 0000 000000
2018-04-06 06:07:46,0.20,1.29,0.00,29.90,31.61,34.42,13.68,47.28,1029.80,2008.00,2932.20,2699.96,3106.30,599.71,589.73,8.45,0000 0000 0000 0000 000000
2018-04-06 06:12:47,0.20,1.30,0.00,29.94,31.66,34.46,13.62,47.20,1029.80,2007.95,2928.73,2697.21,3103.14,600.07,589.97,8.50,0000 0000 0000 0000 000000
2018-04-06 06:17:48,0.12,1.30,0.00,29.99,31.71,34.51,13.70,47.33,1029.80,2007.29,2925.19,2694.44,3099.96,600.02,589.85,8.55,0000 0000 0000 0000 000000
2018-04-06 06:22:50,0.19,1.31,0.00,30.04,31.77,34.55,13.71,47.25,1029.78,2007.03,2921.76,2691.78,3096.93,599.98,589.58,8.60,0000 0000 0000 0000 000000
2018-04-06 06:27:51,0.20,1.32,0.00,30.10,31.82,34.60,13.72,47.23,1029.79,2007.00,2918.27,2689.01,3093.78,600.18,589.81,8.65,0000 0000 0000 0000 000000
2018-04-06 06:32:52,0.18,1.33,0.00,30.15,31.87,34.65,13.61,47.27,1029.78,2006.95,2915.04,2686.54,3090.87,599.68,589.21,8.70,0000 0000 0000 0000 000000
2018-04-06 06:37:54,0.12,1.34,0.00,30.18,31.92,34.69,13.60,47.33,1029.80,2006.38,2911.78,2684.04,3087.99,599.48,589.06,8.75,0000 0000 0000 0000 000000
2018-04-06 06:42:55,0.18,1.35,0.00,30.23,31.98,34.75,13.73,47.41,1029.77,2006.02,2908.46,2681.44,3084.99,599.93,589.30,8.80,0000 0000 0000 0000 000000
2018-04-06 06:47:56,0.30,1.36,0.00,30.28,32.03,34.79,13.75,47.27,1029.79,2006.00,2903.83,2677.73,3080.74,600.43,589.70,8.85,0000 0000 0000 0000 000000
2018-04-06 06:52:57,0.26,1.38,0.00,30.32,32.08,34.84,13.66,47.20,1029.72,2005.95,2899.16,2673.95,3076.48,600.17,589.32,8.90,0000 0000 0000 0000 000000
2018-04-06 06:57:59,0.18,1.39,0.00,30.36,32.12,34.90,13.60,47.28,1029.58,2005.50,2895.15,2670.76,3072.85,599.57,588.49,8.95,0000 0000 0000 0000 000000
2018-04-06 07:03:00,0.19,1.39,0.00,30.39,32.17,34.93,13.67,47.26,1029.41,2005.02,2891.28,2667.75,3069.53,600.00,588.79,9.00,0000 0000 0000 0000 000000
2018-04-06 07:08:01,0.23,1.41,0.00,30.42,32.21,34.98,13.67,47.27,1029.54,2005.00,2887.28,2664.73,3066.03,600.06,588.91,9.05,0000 0000 0000 0000 000000
2018-04-06 07:13:03,0.24,1.42,0.00,30.49,32.26,35.02,13.67,47.23,1029.62,2004.97,2883.19,2661.64,3062.56,600.22,589.06,9.10,0000 0000 0000 0000 000000
2018-04-06 07:18:03,0.21,1.43,0.00,30.53,32.30,35.08,13.64,47.15,1029.73,2004.69,2879.11,2658.37,3058.92,599.97,588.62,9.15,0000 0000 0000 0000 000000
2018-04-06 07:23:04,0.22,1.44,0.00,30.57,32.35,35.12,13.63,47.29,1029.74,2004.18,2874.74,2654.90,3055.04,599.68,588.53,9.20,0000 0000 0000 0000 000000
2018-04-06 07:28:06,0.23,1.45,0.00,30.62,32.39,35.15,13.61,47.17,1029.71,2004.01,2870.60,2651.66,3051.32,599.95,588.63,9.25,0000 0000 0000 0000 000000
2018-04-06 07:33:07,0.21,1.47,0.00,30.67,32.44,35.20,13.66,47.24,1029.75,2004.00,2866.82,2648.77,3048.02,599.84,588.36,9.31,0000 0000 0000 0000 000000
2018-04-06 07:38:08,0.20,1.48,0.00,30.71,32.48,35.24,13.59,47.18,1029.76,2003.92,2863.35,2646.03,3044.90,600.18,588.57,9.36,0000 0000 0000 0000 000000
2018-04-06 07:43:10,0.15,1.48,0.00,30.74,32.53,35.28,13.69,47.27,1029.50,2003.28,2859.72,2643.18,3041.67,600.44,588.68,9.41,0000 0000 0000 0000 000000
2018-04-06 07:48:11,0.18,1.49,0.00,30.79,32.57,35.33,13.72,47.27,1029.39,2003.03,2856.30,2640.56,3038.70,600.18,588.22,9.46,0000 0000 0000 0000 000000
2018-04-06 07:53:13,0.23,1.50,0.00,30.84,32.61,35.37,13.63,47.19,1029.47,2003.00,2852.64,2637.83,3035.52,599.91,587.88,9.51,0000 0000 0000 0000 000000
2018-04-06 07:58:14,0.30,1.52,0.00,30.86,32.66,35.43,13.54,47.16,1029.37,2002.99,2847.86,2634.19,3031.45,599.52,587.61,9.56,0000 0000 0000 0000 000000
2018-04-06 08:03:15,0.32,1.53,0.00,30.89,32.70,35.46,13.67,47.19,1029.37,2002.91,2842.36,2630.00,3026.71,600.09,587.96,9.61,0000 0000 0000 0000 000000
2018-04-06 08:08:16,0.22,1.55,0.00,30.93,32.74,35.50,13.69,47.27,1029.37,2002.28,2837.32,2626.02,3022.10,600.06,587.85,9.66,0000 0000 0000 0000 000000
2018-04-06 08:13:17,0.26,1.56,0.00,30.96,32.78,35.55,13.68,47.21,1029.40,2002.01,2832.78,2622.59,3018.05,600.22,587.92,9.71,0000 0000 0000 0000 000000
2018-04-06 08:18:19,0.26,1.57,0.00,30.97,32.82,35.60,13.65,47.16,1029.35,2001.99,2828.31,2619.25,3014.20,599.73,587.49,9.76,0000 0000 0000 0000 000000
2018-04-06 08:23:20,0.27,1.59,0.00,31.01,32.86,35.64,13.66,47.15,1029.34,2001.97,2823.76,2615.80,3010.33,600.01,587.63,9.81,0000 0000 0000 0000 000000
2018-04-06 08:28:22,0.24,1.60,0.00,31.03,32.91,35.69,13.58,47.24,1029.32,2001.76,2819.14,2612.31,3006.58,599.32,586.88,9.86,0000 0000 0000 0000 000000
2018-04-06 08:33:23,0.21,1.61,0.00,31.07,32.95,35.73,13.61,47.20,1029.31,2001.22,2814.72,2608.89,3002.77,599.93,587.41,9.91,0000 0000 0000 0000 000000
2018-04-06 08:38:24,0.26,1.62,0.00,31.09,32.98,35.76,13.65,47.15,1029.31,2001.01,2810.30,2605.53,2998.90,599.72,587.33,9.96,0000 0000 0000 0000 000000
2018-04-06 08:43:25,0.27,1.64,0.00,31.10,33.02,35.83,13.64,47.12,1029.31,2001.00,2805.98,2602.10,2994.89,599.83,587.26,10.01,0000 0000 0000 0000 000000
2018-04-06 08:48:26,0.28,1.65,0.00,31.10,33.06,35.85,13.63,47.14,1029.31,2000.97,2801.33,2598.51,2990.81,599.87,587.23,10.06,0000 0000 0000 0000 000000
2018-04-06 08:53:28,0.22,1.66,0.00,31.11,33.10,35.90,13.58,47.02,1029.31,2000.64,2797.06,2595.24,2987.05,600.04,587.43,10.11,0000 0000 0000 0000 000000
2018-04-06 08:58:29,0.25,1.67,0.00,31.12,33.13,35.95,13.70,47.08,1029.30,2000.16,2792.28,2591.74,2983.14,600.36,587.63,10.16,0000 0000 0000 0000 000000
2018-04-06 09:03:30,0.30,1.69,0.00,31.11,33.16,35.98,13.59,47.22,1029.30,2000.01,2787.07,2587.89,2978.90,599.59,587.06,10.21,0000 0000 0000 0000 000000
2018-04-06 09:08:31,0.29,1.70,0.00,31.11,33.19,36.02,13.66,47.13,1029.31,2000.00,2782.34,2584.25,2974.73,599.87,587.26,10.26,0000 0000 0000 0000 000000
2018-04-06 09:13:33,0.25,1.72,0.00,31.12,33.22,36.07,13.61,47.13,1029.31,2000.00,2777.96,2581.01,2971.02,599.67,587.06,10.31,0000 0000 0000 0000 000000
2018-04-06 09:18:34,0.18,1.73,0.00,31.13,33.25,36.07,13.64,47.17,1029.31,1999.99,2774.75,2578.62,2968.35,600.24,587.60,10.36,0000 0000 0000 0000 000000
2018-04-06 09:23:35,0.22,1.74,0.00,31.12,33.27,36.08,13.67,47.17,1029.31,1999.92,2771.17,2575.97,2965.30,600.17,587.54,10.41,0000 0000 0000 0000 000000
2018-04-06 09:28:36,0.21,1.75,0.00,31.11,33.30,36.13,13.63,47.13,1029.31,1999.53,2767.08,2572.93,2961.83,599.69,587.15,10.46,0000 0000 0000 0000 000000
2018-04-06 09:33:38,0.28,1.76,0.00,31.11,33.32,36.15,13.61,47.10,1029.31,1999.09,2762.40,2569.21,2957.62,600.06,587.46,10.51,0000 0000 0000 0000 000000
2018-04-06 09:38:39,0.30,1.78,0.00,31.12,33.35,36.15,13.65,47.08,1029.31,1999.03,2757.57,2565.47,2953.31,600.42,587.85,10.56,0000 0000 0000 0000 000000
2018-04-06 09:43:40,0.28,1.79,0.00,31.11,33.37,36.21,13.59,47.23,1029.31,1999.00,2753.06,2561.97,2949.30,598.87,586.35,10.61,0000 0000 0000 0000 000000
2018-04-06 09:48:41,0.28,1.81,0.00,31.10,33.39,36.21,13.68,47.17,1029.31,1999.00,2748.60,2558.56,2945.38,599.81,587.22,10.66,0000 0000 0000 0000 000000
2018-04-06 09:53:42,0.28,1.82,0.00,31.10,33.40,36.23,13.65,47.17,1029.32,1998.99,2744.04,2555.14,2941.47,599.94,587.44,10.71,0000 0000 0000 0000 000000
2018-04-06 09:58:44,0.27,1.83,0.00,31.09,33.42,36.23,13.64,47.33,1029.31,1998.96,2739.79,2551.82,2937.64,599.78,587.24,10.76,0000 0000 0000 0000 000000
2018-04-06 10:03:45,0.27,1.85,0.00,31.07,33.44,36.24,13.72,47.23,1029.31,1998.96,2735.51,2548.56,2933.87,600.23,587.70,10.81,0000 0000 0000 0000 000000
2018-04-06 10:08:46,0.27,1.86,0.00,31.09,33.45,36.25,13.68,47.21,1029.31,1998.84,2731.10,2545.20,2930.08,600.27,587.77,10.86,0000 0000 0000 0000 000000
2018-04-06 10:13:48,0.23,1.88,0.00,31.08,33.47,36.27,13.72,47.29,1029.31,1998.74,2726.97,2542.12,2926.56,600.45,587.89,10.91,0000 0000 0000 0000 000000
2018-04-06 10:18:49,0.17,1.88,0.00,31.05,33.48,36.31,13.68,47.15,1029.31,1998.45,2723.73,2539.69,2923.82,600.24,587.75,10.96,0000 0000 0000 0000 000000
2018-04-06 10:23:50,0.15,1.89,0.00,31.03,33.50,36.30,13.71,47.14,1029.31,1998.18,2720.69,2537.47,2921.30,600.49,588.09,11.01,0000 0000 0000 0000 000000
2018-04-06 10:28:51,0.20,1.90,0.00,31.02,33.50,36.30,13.68,47.08,1029.31,1998.13,2717.55,2535.12,2918.53,600.28,587.83,11.06,0000 0000 0000 0000 000000
2018-04-06 10:33:53,0.31,1.92,0.00,30.98,33.50,36.31,13.64,47.14,1029.32,1998.04,2712.91,2531.71,2914.67,600.09,587.70,11.11,0000 0000 0000 0000 000000
2018-04-06 10:38:54,0.33,1.93,0.00,30.97,33.52,36.33,13.69,47.15,1029.32,1998.00,2707.54,2527.91,2910.36,600.18,587.96,11.16,0000 0000 0000 0000 000000
2018-04-06 10:43:55,0.32,1.95,0.00,30.96,33.52,36.32,13.65,47.14,1029.31,1998.00,2702.51,2524.20,2906.18,599.90,587.62,11.21,0000 0000 0000 0000 000000
2018-04-06 10:48:56,0.29,1.96,0.00,30.94,33.52,36.34,13.71,47.22,1029.31,1998.00,2697.55,2520.74,2902.28,600.12,587.84,11.26,0000 0000 0000 0000 000000
2018-04-06 10:53:57,0.27,1.98,0.00,30.92,33.52,36.32,13.67,47.13,1029.31,1998.00,2693.17,2517.58,2898.73,600.07,587.84,11.31,0000 0000 0000 0000 000000
2018-04-06 10:58:59,0.25,1.99,0.00,30.91,33.52,36.34,13.63,47.12,1029.31,1998.00,2689.22,2514.67,2895.44,599.81,587.54,11.36,0000 0000 0000 0000 000000
2018-04-06 11:04:00,0.21,2.00,0.00,30.88,33.53,36.33,13.65,47.15,1029.29,1998.00,2685.80,2512.07,2892.42,600.05,587.80,11.41,0000 0000 0000 0000 000000
2018-04-06 11:09:01,0.27,2.02,0.00,30.88,33.53,36.32,13.59,47.13,1029.31,1998.00,2681.81,2509.08,2888.99,599.75,587.58,11.46,0000 0000 0000 0000 000000
2018-04-06 11:14:03,0.25,2.03,0.00,30.86,33.53,36.34,13.66,47.20,1029.23,1997.98,2677.62,2506.06,2885.52,599.60,587.43,11.51,0000 0000 0000 0000 000000
2018-04-06 11:19:04,0.22,2.04,0.00,30.84,33.53,36.35,13.68,47.06,1029.00,1997.99,2674.00,2503.46,2882.57,600.01,587.75,11.56,0000 0000 0000 0000 000000
2018-04-06 11:24:05,0.21,2.05,0.00,30.83,33.52,36.35,13.72,47.13,1028.89,1997.98,2670.54,2500.92,2879.73,600.34,587.92,11.61,0000 0000 0000 0000 000000
2018-04-06 11:29:07,0.24,2.06,0.00,30.80,33.52,36.34,13.71,47.11,1028.84,1997.99,2666.92,2498.26,2876.86,600.32,588.03,11.66,0000 0000 0000 0000 000000
2018-04-06 11:34:08,0.22,2.08,0.00,30.78,33.52,36.35,13.74,47.22,1028.83,1997.99,2663.19,2495.69,2873.87,600.36,588.11,11.71,0000 0000 0000 0000 000000
2018-04-06 11:39:09,0.22,2.09,0.00,30.77,33.52,36.32,13.67,47.06,1028.84,1997.99,2659.66,2493.25,2871.03,599.95,587.74,11.77,0000 0000 0000 0000 000000
2018-04-06 11:44:11,0.20,2.10,0.00,30.75,33.51,36.35,13.69,47.15,1028.85,1997.99,2656.42,2490.94,2868.31,600.64,588.42,11.82,0000 0000 0000 0000 000000
2018-04-06 11:49:12,0.17,2.11,0.00,30.72,33.50,36.35,13.73,47.31,1028.95,1997.99,2653.51,2488.85,2865.96,600.36,588.21,11.87,0000 0000 0000 0000 000000
2018-04-06 11:54:13,0.14,2.11,0.00,30.71,33.50,36.32,13.64,47.17,1028.86,1997.99,2651.17,2487.24,2864.06,599.80,587.67,11.92,0000 0000 0000 0000 000000
2018-04-06 11:59:14,0.14,2.12,0.00,30.69,33.49,36.33,13.71,47.28,1028.84,1997.99,2648.92,2485.69,2862.35,599.98,587.97,11.97,0000 0000 0000 0000 000000
2018-04-06 12:04:16,0.12,2.13,0.00,30.66,33.47,36.31,13.64,47.29,1028.83,1997.99,2646.81,2484.26,2860.66,599.98,587.95,12.02,0000 0000 0000 0000 000000
2018-04-06 12:09:17,0.16,2.14,0.00,30.65,33.47,36.33,13.68,47.17,1028.83,1997.99,2644.37,2482.59,2858.85,600.02,587.99,12.07,0000 0000 0000 0000 000000
2018-04-06 12:14:18,0.15,2.14,0.00,30.63,33.45,36.32,13.71,47.13,1028.72,1998.00,2641.93,2480.86,2856.81,600.19,588.07,12.12,0000 0000 0000 0000 000000
2018-04-06 12:19:20,0.12,2.15,0.00,30.61,33.45,36.31,13.65,47.23,1028.51,1998.00,2639.82,2479.45,2855.11,599.75,587.58,12.17,0000 0000 0000 0000 000000
2018-04-06 12:24:21,0.16,2.16,0.00,30.59,33.43,36.33,13.59,47.11,1028.52,1998.00,2637.39,2477.76,2853.23,599.84,587.78,12.22,0000 0000 0000 0000 000000
2018-04-06 12:29:22,0.13,2.17,0.00,30.58,33.42,36.32,13.71,47.18,1028.46,1998.00,2635.05,2476.11,2851.34,599.76,587.70,12.27,0000 0000 0000 0000 000000
2018-04-06 12:34:23,0.15,2.17,0.00,30.55,33.40,36.32,13.71,47.32,1028.38,1998.02,2632.86,2474.64,2849.59,600.15,588.02,12.32,0000 0000 0000 0000 000000
2018-04-06 12:39:25,0.22,2.18,0.00,30.51,33.40,36.30,13.64,47.17,1028.35,1998.04,2629.67,2472.45,2847.07,599.92,587.88,12.37,0000 0000 0000 0000 000000
2018-04-06 12:44:26,0.26,2.19,0.00,30.49,33.38,36.33,13.75,47.29,1028.34,1998.03,2625.50,2469.71,2843.83,600.20,588.23,12.42,0000 0000 0000 0000 000000
2018-04-06 12:49:27,0.25,2.21,0.00,30.45,33.37,36.32,13.72,47.20,1028.37,1998.07,2621.53,2466.95,2840.67,600.06,588.19,12.47,0000 0000 0000 0000 000000
2018-04-06 12:54:28,0.18,2.22,0.00,30.45,33.35,36.34,13.79,47.17,1028.34,1998.11,2618.55,2464.83,2838.26,600.14,588.17,12.52,0000 0000 0000 0000 000000
2018-04-06 12:59:30,0.15,2.23,0.00,30.43,33.34,36.32,13.71,47.11,1028.35,1998.15,2616.14,2463.13,2836.33,600.07,588.35,12.57,0000 0000 0000 0000 000000